Total_Precipitation_Accumulation
2.37 2.49 2.29 2.34 2.13 2.27 2.63 2.93 2.94 3.13 3.25 3.09 2.69 2.46 2.48 2.46 2.25 2.25 2.55 2.77 2.82 2.73 2.83 2.83 2.56 2.40 2.32 1.97 1.70 1.55 1.38 1.26 1.11 0.94 0.85 0.81 0.71 0.52 0.35 0.29 0.29 0.30 0.28
2.59 2.68 2.53 2.48 2.19 2.19 2.51 2.89 2.95 3.25 3.28 3.28 2.76 2.41 2.34 2.33 2.13 2.05 2.17 2.61 2.61 2.48 2.54 2.75 2.84 2.79 2.69 2.38 2.08 1.80 1.59 1.42 1.24 1.00 0.87 0.82 0.77 0.66 0.57 0.46 0.40 0.38 0.33
2.81 2.98 2.88 2.50 2.26 2.35 2.56 2.59 2.74 3.23 3.09 3.04 2.86 2.75 2.69 2.47 2.21 2.13 2.06 2.24 2.16 2.29 2.42 2.51 2.72 2.95 3.06 2.96 2.70 2.35 2.04 1.69 1.37 1.11 0.94 0.82 0.75 0.67 0.63 0.57 0.53 0.51 0.43
2.55 2.77 2.54 2.15 2.21 2.42 2.59 2.60 2.61 3.00 3.13 3.15 3.13 2.96 2.80 2.59 2.19 2.08 2.03 1.98 2.00 1.81 2.07 2.33 2.58 2.87 3.24 3.44 3.48 3.34 2.90 2.25 1.73 1.35 1.10 0.96 0.86 0.72 0.59 0.55 0.57 0.58 0.48
1.76 2.00 1.97 1.90 1.90 2.16 2.20 1.94 2.19 2.51 2.71 2.85 2.64 2.49 2.19 1.97 1.82 1.73 1.71 1.62 1.79 1.90 2.00 2.00 2.30 2.57 3.10 3.78 4.26 4.24 3.80 3.01 2.25 1.83 1.57 1.34 1.21 0.99 0.74 0.62 0.62 0.60 0.53
1.53 1.73 1.73 1.58 1.56 1.72 1.78 1.94 2.24 2.33 2.24 2.29 1.98 1.89 1.83 1.63 1.59 1.58 1.41 1.42 1.57 1.54 1.67 1.89 2.17 2.00 2.49 3.26 3.85 4.14 4.08 3.68 2.94 2.38 2.09 1.93 1.83 1.51 1.11 0.93 0.86 0.75 0.66
1.61 1.78 1.61 1.63 1.54 1.56 1.59 1.68 1.89 1.98 1.75 1.91 2.15 1.94 1.63 1.38 1.40 1.39 1.33 1.41 1.47 1.55 1.67 2.02 2.23 2.26 2.09 2.15 2.52 3.15 3.75 4.04 3.83 3.21 2.65 2.34 2.24 1.92 1.45 1.25 1.08 0.96 0.91
1.61 1.49 1.62 1.44 1.39 1.56 1.54 1.60 1.81 1.82 1.60 1.72 2.00 2.06 1.80 1.69 1.39 0.99 1.18 1.30 1.35 1.63 1.73 1.75 2.00 2.43 2.40 2.51 1.96 2.22 3.16 3.78 4.22 4.22 3.63 3.00 2.65 2.24 1.81 1.62 1.40 1.23 1.15
1.36 1.38 1.36 1.26 1.33 1.23 1.39 1.56 1.68 1.84 1.80 1.62 1.61 1.90 1.82 1.76 1.55 1.14 1.00 1.09 1.33 1.59 1.60 1.70 1.76 2.08 2.38 2.73 2.60 2.15 2.34 2.77 3.68 4.50 4.46 3.69 2.83 2.21 1.92 1.87 1.83 1.60 1.42
1.35 1.34 1.26 1.32 1.31 1.17 1.42 1.22 1.36 1.64 1.78 1.61 1.61 1.55 1.58 1.68 1.71 1.54 1.31 1.14 1.29 1.38 1.48 1.52 1.67 1.97 2.19 2.50 2.61 2.09 1.78 1.98 2.79 3.78 4.32 4.13 3.38 2.56 2.14 2.23 2.47 2.32 1.95
1.45 1.23 1.26 1.41 1.46 1.31 1.33 1.31 1.48 1.51 1.55 1.57 1.58 1.56 1.72 1.73 1.56 1.58 1.58 1.47 1.40 1.18 1.33 1.59 1.76 1.88 1.99 2.26 2.55 2.26 2.07 1.90 1.95 2.39 2.93 3.38 3.52 3.19 2.86 2.84 3.13 3.31 3.13
1.41 1.29 1.36 1.57 1.56 1.51 1.47 1.40 1.41 1.46 1.62 1.72 1.71 1.59 1.65 1.70 1.65 1.73 1.57 1.50 1.56 1.37 1.51 1.80 1.87 1.92 1.88 2.02 2.02 1.98 1.90 1.79 1.71 1.70 1.88 2.21 2.65 2.94 2.97 3.09 3.46 3.83 3.96
1.22 1.31 1.36 1.51 1.50 1.52 1.46 1.58 1.60 1.53 1.62 1.70 1.68 1.63 1.56 1.49 1.58 1.72 1.75 1.61 1.63 1.58 1.80 1.85 1.87 1.88 1.80 1.98 2.06 1.96 1.67 1.61 1.49 1.40 1.46 1.63 1.88 2.26 2.61 2.84 3.19 3.55 3.82
1.11 1.13 1.22 1.27 1.32 1.37 1.36 1.68 1.58 1.60 1.68 1.62 1.52 1.80 1.72 1.49 1.62 1.75 1.94 2.10 1.99 1.89 1.98 1.97 2.00 1.98 2.09 2.17 2.19 2.07 1.75 1.71 1.54 1.40 1.31 1.29 1.36 1.52 1.82 2.10 2.38 2.67 2.95
1.19 1.21 1.23 1.38 1.49 1.51 1.55 1.74 1.67 1.65 1.77 1.63 1.61 1.74 1.71 1.64 1.68 1.68 1.99 2.26 2.37 2.21 2.10 2.03 1.87 1.80 1.88 1.97 2.00 1.72 1.54 1.59 1.49 1.36 1.28 1.22 1.20 1.27 1.38 1.49 1.57 1.65 1.73
1.32 1.38 1.40 1.50 1.56 1.54 1.54 1.70 1.69 1.76 1.83 1.73 1.71 1.74 1.72 1.70 1.81 1.76 1.88 2.08 2.26 2.44 2.30 1.91 1.77 1.70 1.67 1.51 1.57 1.43 1.40 1.57 1.45 1.31 1.26 1.24 1.25 1.26 1.24 1.26 1.29 1.31 1.34
1.36 1.39 1.47 1.55 1.54 1.59 1.71 1.80 1.68 1.74 1.84 2.00 1.92 1.90 1.97 2.05 2.01 1.94 2.00 2.06 2.20 2.46 2.42 1.99 1.89 1.87 1.75 1.55 1.45 1.37 1.34 1.44 1.47 1.56 1.42 1.32 1.23 1.15 1.12 1.11 1.12 1.17 1.21
1.55 1.52 1.55 1.59 1.49 1.53 1.72 1.79 1.78 1.81 1.85 1.91 2.06 2.27 2.23 2.23 2.15 2.01 2.10 2.06 2.12 2.39 2.31 2.07 2.09 2.08 1.99 1.76 1.64 1.51 1.36 1.36 1.44 1.61 1.40 1.27 1.21 1.15 1.13 1.12 1.10 1.08 1.06
1.80 1.83 1.81 1.71 1.62 1.60 1.67 1.77 1.86 1.88 1.93 1.99 2.11 2.21 2.24 2.38 2.25 2.15 2.10 2.06 2.12 2.29 2.37 2.20 2.15 2.29 2.22 1.96 1.81 1.61 1.42 1.45 1.30 1.43 1.39 1.29 1.26 1.19 1.14 1.08 1.05 1.03 1.00
1.86 1.99 1.95 1.88 1.84 1.75 1.62 1.61 1.66 1.74 1.91 2.05 2.10 2.02 2.11 2.34 2.39 2.34 2.18 2.13 2.22 2.36 2.41 2.36 2.31 2.40 2.41 2.33 2.15 1.88 1.73 1.61 1.46 1.36 1.41 1.30 1.26 1.21 1.15 1.07 1.02 1.00 1.00
1.81 1.98 2.05 2.05 1.99 1.83 1.61 1.62 1.74 1.75 1.91 1.96 1.92 1.82 1.82 2.01 2.24 2.33 2.14 2.11 2.23 2.24 2.25 2.30 2.31 2.36 2.39 2.50 2.36 2.06 1.85 1.72 1.52 1.34 1.36 1.26 1.20 1.11 1.12 1.12 1.05 0.97 0.89
2.23 2.27 2.23 2.16 2.07 1.72 1.77 1.76 1.75 1.78 1.88 1.92 1.89 1.83 1.70 1.67 1.70 1.85 1.99 2.12 2.23 2.19 2.18 2.33 2.50 2.55 2.53 2.53 2.51 2.30 2.03 1.80 1.66 1.46 1.50 1.48 1.40 1.32 1.15 1.04 1.07 0.98 0.87
2.60 2.63 2.51 2.34 2.19 2.09 1.97 1.75 1.70 1.62 1.66 1.70 1.75 1.74 1.49 1.34 1.45 1.39 1.57 1.73 1.86 1.94 1.96 2.11 2.27 2.38 2.50 2.64 2.68 2.46 2.26 2.06 1.81 1.61 1.58 1.46 1.36 1.37 1.26 1.19 1.25 1.07 0.98
2.50 2.53 2.47 2.34 2.24 2.16 2.01 1.67 1.58 1.39 1.45 1.49 1.53 1.53 1.47 1.39 1.38 1.43 1.45 1.44 1.43 1.51 1.62 1.63 1.75 1.99 2.24 2.46 2.61 2.53 2.41 2.13 1.84 1.63 1.56 1.45 1.30 1.27 1.22 1.23 1.33 1.22 1.09
2.21 2.12 2.09 2.10 2.08 2.12 2.04 1.68 1.49 1.34 1.46 1.49 1.51 1.53 1.56 1.48 1.58 1.45 1.40 1.45 1.47 1.49 1.53 1.57 1.59 1.75 2.01 2.19 2.29 2.34 2.31 2.18 1.94 1.70 1.61 1.61 1.41 1.32 1.25 1.15 1.15 1.20 1.08
2.10 2.05 1.97 2.00 1.99 1.96 1.94 1.56 1.43 1.36 1.48 1.50 1.54 1.55 1.53 1.42 1.43 1.29 1.24 1.37 1.40 1.42 1.47 1.47 1.49 1.52 1.60 1.92 2.22 2.05 2.04 2.07 1.89 1.63 1.39 1.44 1.41 1.39 1.29 1.02 0.91 0.92 0.89